Phoenix, AZ

5:58 PM MST on May 22, 2017 (GMT -0700)
Phoenix Sky Harbor International

Weather History for KPHX - March, 2013

Change the Weather History Date:

Saturday, March 30, 2013

  Actual Average Record
Temperature  
Mean Temperature 78 °F 68 °F  
Max Temperature 88 °F 81 °F 97 °F (2004)
Min Temperature 67 °F 56 °F 38 °F (1898)
Degree Days  
Heating Degree Days 0 1  
Month to date heating degree days 34 80  
Since 1 July heating degree days 881 913  
Cooling Degree Days 13 5  
Month to date cooling degree days 170 82  
Year to date cooling degree days 178 99  
Growing Degree Days 27 (Base 50)    
Moisture  
Dew Point 28 °F    
Average Humidity 17    
Maximum Humidity 25    
Minimum Humidity 9    
Precipitation  
Precipitation 0.00 in 0.02 in 0.14 in (1912)
Month to date precipitation 0.85 0.97  
Year to date precipitation 2.55 2.80  
Snow  
Snow 0.00 in - - ()
Month to date snowfall 0.0  
Year to date snowfall 0.0  
Since 1 July snowfall 0.0  
Snow Depth 0.00 in    
Sea Level Pressure  
Sea Level Pressure 29.94 in    
Wind  
Wind Speed 5 mph (ESE)    
Max Wind Speed 12 mph    
Max Gust Speed 14 mph    
Visibility 10 miles    
Events      
T = Trace of Precipitation, MM = Missing Value Source: NWS Daily Summary

Daily Weather History Graph

Daily Weather History Graph

Search for Another Location

Airport or City:

Trip Planner

Search our weather history database for the weather conditions in past years. The results will help you decide how hot, cold, wet, or windy it might be!

Date:

Astronomy

Mar. 30, 2013 Rise Set
Actual Time 6:17 AM MST 6:47 PM MST
Civil Twilight 5:52 AM MST 7:12 PM MST
Nautical Twilight 5:23 AM MST 7:41 PM MST
Astronomical Twilight 4:53 AM MST 8:11 PM MST
Moon 10:45 PM MST (3/30) 8:27 AM MST (3/30)
Length of Visible Light 13h 19m
Length of Day
12h 29m
Waning Gibbous, 85% of the Moon is Illuminated
Mar 30
Waning Gibbous
Apr 2
Last Quarter
Apr 10
New
Apr 18
First Quarter
Apr 25
Full

Hourly Weather History & Observations

Time (MST) Temp. Dew Point Humidity Pressure Visibility Wind Dir Wind Speed Gust Speed Precip Events Conditions
12:51 AM 70.0 °F 30.9 °F 24% 29.97 in 10.0 mi East 5.8 mph - N/A   Scattered Clouds
1:51 AM 69.8 °F 30.2 °F 23% 30.00 in 10.0 mi ESE 5.8 mph - N/A   Scattered Clouds
2:51 AM 69.1 °F 30.0 °F 23% 29.96 in 10.0 mi ESE 5.8 mph - N/A   Scattered Clouds
3:51 AM 69.1 °F 28.9 °F 22% 29.95 in 10.0 mi East 3.5 mph - N/A   Scattered Clouds
4:51 AM 69.8 °F 28.4 °F 21% 29.98 in 10.0 mi East 9.2 mph - N/A   Scattered Clouds
5:51 AM 68.0 °F 28.9 °F 23% 29.96 in 10.0 mi Variable 5.8 mph - N/A   Mostly Cloudy
6:51 AM 68.0 °F 28.9 °F 23% 29.96 in 10.0 mi East 6.9 mph - N/A   Overcast
7:51 AM 69.1 °F 30.0 °F 23% 29.98 in 10.0 mi ESE 4.6 mph - N/A   Overcast
8:51 AM 72.0 °F 28.9 °F 20% 29.99 in 10.0 mi East 8.1 mph - N/A   Overcast
9:51 AM 73.4 °F 26.6 °F 18% 30.04 in 10.0 mi East 5.8 mph - N/A   Overcast
10:51 AM 77.0 °F 26.1 °F 15% 29.99 in 10.0 mi East 8.1 mph - N/A   Overcast
11:51 AM 79.0 °F 26.1 °F 14% 29.98 in 10.0 mi East 4.6 mph - N/A   Overcast
12:51 PM 82.9 °F 25.0 °F 12% 29.96 in 10.0 mi SE 5.8 mph - N/A   Mostly Cloudy
1:51 PM 82.9 °F 25.0 °F 12% 29.94 in 10.0 mi North 3.5 mph - N/A   Mostly Cloudy
2:51 PM 86.0 °F 27.0 °F 12% 29.92 in 10.0 mi Calm Calm - N/A   Mostly Cloudy
3:51 PM 87.8 °F 24.8 °F 10% 29.94 in 10.0 mi South 5.8 mph - N/A   Mostly Cloudy
4:51 PM 87.1 °F 21.9 °F 9% 29.88 in 10.0 mi South 4.6 mph - N/A   Mostly Cloudy
5:51 PM 86.0 °F 23.0 °F 10% 29.91 in 10.0 mi South 4.6 mph - N/A   Scattered Clouds
6:51 PM 82.9 °F 24.1 °F 12% 29.87 in 10.0 mi SE 3.5 mph - N/A   Scattered Clouds
7:51 PM 79.0 °F 28.0 °F 15% 29.88 in 10.0 mi South 3.5 mph - N/A   Partly Cloudy
8:51 PM 77.0 °F 27.0 °F 16% 29.89 in 10.0 mi Calm Calm - N/A   Clear
9:51 PM 75.9 °F 28.0 °F 17% 29.91 in 10.0 mi Calm Calm - N/A   Clear
10:51 PM 72.0 °F 33.1 °F 24% 29.91 in 10.0 mi East 6.9 mph - N/A   Clear
11:51 PM 69.1 °F 32.0 °F 25% 29.92 in 10.0 mi East 5.8 mph - N/A   Clear